When you browse on this site, cookies collect data to enhance your experience and personalize the content and advertising you see.
Visit our Privacy Policy to learn more. By continuing to use the site, you agree to this use of cookies and data.
  • en Suisse
  • Liste des pays
  • À 7 jours
  • Température de l'eau
  • Carte satellitaire
  • Carte météo
  • Widgets météo
  • user-avatar
    Se connecter

    Météo par heure à Talas

    Ce jour, 16 Juin, Dimanche

    Heure Température Précipitation Vent Pression Humidité
    00:00 +7°C° 0 mm 4 m/s 595 mmHg 77%
    01:00 +7°C° 0 mm 4 m/s 594 mmHg 78%
    02:00 +7°C° 0 mm 4 m/s 594 mmHg 79%
    03:00 +6°C° 0 mm 4 m/s 594 mmHg 79%
    04:00 +6°C° 0 mm 4 m/s 594 mmHg 79%
    05:00 +7°C° 0 mm 5 m/s 594 mmHg 79%
    06:00 +8°C° 0 mm 4 m/s 595 mmHg 73%
    07:00 +11°C° 0 mm 4 m/s 596 mmHg 68%
    08:00 +13°C° 0 mm 4 m/s 596 mmHg 62%
    09:00 +14°C° 0.1 mm 4 m/s 597 mmHg 59%
    10:00 +15°C° 0.1 mm 4 m/s 597 mmHg 55%
    11:00 +15°C° 0 mm 4 m/s 597 mmHg 51%
    12:00 +17°C° 0.1 mm 4 m/s 597 mmHg 51%
    13:00 +17°C° 0.1 mm 3 m/s 597 mmHg 50%
    14:00 +17°C° 0.1 mm 3 m/s 597 mmHg 50%
    15:00 +17°C° 0.1 mm 3 m/s 597 mmHg 52%
    16:00 +16°C° 0.1 mm 2 m/s 597 mmHg 55%
    17:00 +16°C° 0.1 mm 2 m/s 597 mmHg 57%
    18:00 +14°C° 0 mm 2 m/s 596 mmHg 62%
    19:00 +12°C° 0 mm 1 m/s 595 mmHg 67%
    20:00 +10°C° 0 mm 1 m/s 595 mmHg 72%
    21:00 +9°C° 0 mm 1 m/s 594 mmHg 72%
    22:00 +9°C° 0 mm 1 m/s 594 mmHg 72%
    23:00 +8°C° 0 mm 1 m/s 594 mmHg 71%

    Demain, 17 Juin, Lundi

    Heure Température Précipitation Vent Pression Humidité
    00:00 +8°C° 0 mm 1 m/s 594 mmHg 71%
    01:00 +7°C° 0 mm 2 m/s 594 mmHg 70%
    02:00 +7°C° 0 mm 2 m/s 593 mmHg 69%
    03:00 +7°C° 0 mm 2 m/s 593 mmHg 69%
    04:00 +7°C° 0 mm 2 m/s 593 mmHg 69%
    05:00 +7°C° 0 mm 2 m/s 593 mmHg 68%
    06:00 +9°C° 0 mm 2 m/s 595 mmHg 62%
    07:00 +13°C° 0 mm 2 m/s 596 mmHg 56%
    08:00 +15°C° 0 mm 2 m/s 597 mmHg 49%
    09:00 +16°C° 0 mm 2 m/s 597 mmHg 47%
    10:00 +17°C° 0 mm 2 m/s 598 mmHg 45%
    11:00 +18°C° 0 mm 2 m/s 598 mmHg 43%
    12:00 +18°C° 0 mm 2 m/s 598 mmHg 44%
    13:00 +18°C° 0 mm 3 m/s 597 mmHg 45%
    14:00 +18°C° 0 mm 3 m/s 597 mmHg 46%
    15:00 +18°C° 0 mm 3 m/s 597 mmHg 49%
    16:00 +17°C° 0 mm 3 m/s 597 mmHg 51%
    17:00 +17°C° 0 mm 2 m/s 597 mmHg 53%
    18:00 +15°C° 0 mm 2 m/s 596 mmHg 60%
    19:00 +12°C° 0 mm 1 m/s 595 mmHg 67%
    20:00 +9°C° 0 mm 0 m/s 594 mmHg 74%
    21:00 +10°C° 0 mm 1 m/s 594 mmHg 72%
    22:00 +9°C° 0 mm 2 m/s 594 mmHg 70%
    23:00 +9°C° 0 mm 2 m/s 594 mmHg 68%

    Après-demain, 18 Juin, Mardi

    Heure Température Précipitation Vent Pression Humidité
    00:00 +9°C° 0 mm 2 m/s 594 mmHg 67%
    01:00 +9°C° 0 mm 2 m/s 593 mmHg 66%
    02:00 +8°C° 0 mm 2 m/s 593 mmHg 65%
    03:00 +8°C° 0 mm 2 m/s 593 mmHg 65%
    04:00 +8°C° 0 mm 2 m/s 593 mmHg 65%
    05:00 +8°C° 0 mm 2 m/s 593 mmHg 65%
    06:00 +11°C° 0 mm 1 m/s 594 mmHg 59%
    07:00 +13°C° 0 mm 1 m/s 595 mmHg 53%
    08:00 +14°C° 0 mm 0 m/s 596 mmHg 47%
    09:00 +16°C° 0 mm 1 m/s 596 mmHg 45%
    10:00 +17°C° 0 mm 2 m/s 596 mmHg 42%
    11:00 +18°C° 0 mm 2 m/s 597 mmHg 40%
    12:00 +18°C° 0.1 mm 3 m/s 597 mmHg 42%
    13:00 +18°C° 0.1 mm 3 m/s 597 mmHg 44%
    14:00 +18°C° 0.1 mm 4 m/s 596 mmHg 47%
    15:00 +18°C° 0.2 mm 3 m/s 596 mmHg 47%
    16:00 +18°C° 0.2 mm 3 m/s 596 mmHg 48%
    17:00 +17°C° 0.2 mm 3 m/s 596 mmHg 49%
    18:00 +15°C° 0 mm 2 m/s 595 mmHg 56%
    19:00 +13°C° 0 mm 1 m/s 594 mmHg 63%
    20:00 +11°C° 0 mm 1 m/s 593 mmHg 70%
    21:00 +11°C° 0 mm 1 m/s 593 mmHg 70%
    22:00 +10°C° 0 mm 1 m/s 593 mmHg 70%
    23:00 +10°C° 0 mm 1 m/s 593 mmHg 70%

    19 Juin, Mercredi

    Heure Température Précipitation Vent Pression Humidité
    00:00 +10°C° 0 mm 1 m/s 593 mmHg 70%
    01:00 +10°C° 0 mm 1 m/s 593 mmHg 69%
    02:00 +9°C° 0 mm 1 m/s 592 mmHg 69%
    03:00 +9°C° 0 mm 1 m/s 592 mmHg 70%
    04:00 +9°C° 0 mm 1 m/s 592 mmHg 71%
    05:00 +9°C° 0 mm 1 m/s 592 mmHg 72%
    06:00 +11°C° 0.1 mm 1 m/s 594 mmHg 65%
    07:00 +14°C° 0.1 mm 1 m/s 595 mmHg 59%
    08:00 +16°C° 0.1 mm 1 m/s 596 mmHg 52%
    09:00 +16°C° 0.5 mm 1 m/s 596 mmHg 52%
    10:00 +17°C° 0.5 mm 2 m/s 596 mmHg 51%
    11:00 +18°C° 0.5 mm 2 m/s 596 mmHg 50%
    12:00 +18°C° 1.1 mm 3 m/s 596 mmHg 53%
    13:00 +17°C° 1.1 mm 3 m/s 596 mmHg 55%
    14:00 +17°C° 1.1 mm 4 m/s 596 mmHg 57%
    15:00 +17°C° 0.7 mm 3 m/s 596 mmHg 58%
    16:00 +17°C° 0.7 mm 3 m/s 596 mmHg 58%
    17:00 +16°C° 0.7 mm 2 m/s 596 mmHg 58%
    18:00 +15°C° 0.1 mm 2 m/s 595 mmHg 63%
    19:00 +14°C° 0.1 mm 1 m/s 595 mmHg 67%
    20:00 +12°C° 0.1 mm 1 m/s 594 mmHg 71%
    21:00 +11°C° 0 mm 1 m/s 594 mmHg 71%
    22:00 +11°C° 0 mm 1 m/s 594 mmHg 71%
    23:00 +10°C° 0 mm 1 m/s 594 mmHg 71%

    20 Juin, Jeudi

    Heure Température Précipitation Vent Pression Humidité
    00:00 +9°C° 0 mm 2 m/s 593 mmHg 70%
    01:00 +9°C° 0 mm 2 m/s 593 mmHg 70%
    02:00 +9°C° 0 mm 2 m/s 593 mmHg 69%
    03:00 +9°C° 0 mm 2 m/s 593 mmHg 70%
    04:00 +8°C° 0 mm 2 m/s 593 mmHg 71%
    05:00 +8°C° 0 mm 2 m/s 593 mmHg 72%
    06:00 +12°C° 0 mm 1 m/s 594 mmHg 65%
    07:00 +14°C° 0 mm 1 m/s 595 mmHg 58%
    08:00 +16°C° 0 mm 1 m/s 596 mmHg 51%
    09:00 +18°C° 0 mm 1 m/s 596 mmHg 49%
    10:00 +18°C° 0 mm 2 m/s 597 mmHg 46%
    11:00 +19°C° 0 mm 2 m/s 597 mmHg 44%
    12:00 +19°C° 0.1 mm 2 m/s 597 mmHg 45%
    13:00 +19°C° 0.1 mm 2 m/s 597 mmHg 46%
    14:00 +20°C° 0.1 mm 3 m/s 597 mmHg 47%
    15:00 +19°C° 0.3 mm 2 m/s 596 mmHg 50%
    16:00 +18°C° 0.3 mm 2 m/s 596 mmHg 52%
    17:00 +18°C° 0.3 mm 2 m/s 596 mmHg 55%
    18:00 +16°C° 0.1 mm 1 m/s 595 mmHg 60%
    19:00 +14°C° 0.1 mm 1 m/s 594 mmHg 65%
    20:00 +11°C° 0.1 mm 0 m/s 593 mmHg 70%
    21:00 +12°C° 0 mm 1 m/s 593 mmHg 69%
    22:00 +12°C° 0 mm 1 m/s 594 mmHg 69%
    23:00 +12°C° 0 mm 2 m/s 594 mmHg 68%

    21 Juin, Vendredi

    Heure Température Précipitation Vent Pression Humidité
    00:00 +10°C° 0 mm 2 m/s 593 mmHg 67%
    01:00 +10°C° 0 mm 2 m/s 593 mmHg 67%
    02:00 +10°C° 0 mm 2 m/s 593 mmHg 66%
    03:00 +10°C° 0 mm 2 m/s 593 mmHg 65%
    04:00 +10°C° 0 mm 2 m/s 593 mmHg 64%
    05:00 +10°C° 0 mm 3 m/s 593 mmHg 62%
    06:00 +13°C° 0 mm 2 m/s 594 mmHg 57%
    07:00 +15°C° 0 mm 2 m/s 596 mmHg 51%
    08:00 +18°C° 0 mm 1 m/s 597 mmHg 45%
    09:00 +19°C° 0 mm 1 m/s 597 mmHg 43%
    10:00 +19°C° 0 mm 2 m/s 597 mmHg 41%
    11:00 +20°C° 0 mm 2 m/s 598 mmHg 39%
    12:00 +21°C° 0 mm 2 m/s 597 mmHg 39%
    13:00 +21°C° 0 mm 2 m/s 597 mmHg 40%
    14:00 +21°C° 0 mm 2 m/s 597 mmHg 40%
    15:00 +21°C° 0.3 mm 2 m/s 597 mmHg 43%
    16:00 +20°C° 0.3 mm 2 m/s 596 mmHg 46%
    17:00 +20°C° 0.3 mm 2 m/s 596 mmHg 48%
    18:00 +17°C° 0.3 mm 2 m/s 595 mmHg 54%
    19:00 +15°C° 0.3 mm 1 m/s 594 mmHg 60%
    20:00 +12°C° 0.3 mm 0 m/s 593 mmHg 65%
    21:00 +13°C° 0 mm 1 m/s 593 mmHg 64%
    22:00 +13°C° 0 mm 1 m/s 593 mmHg 63%
    23:00 +12°C° 0 mm 1 m/s 593 mmHg 62%
    Voir plus